Wind_Speed
11 11 10 10 9 9 8 7 6 6 6 7 8 9 9 10 10 10 10 10 11 11 12 13 14 15 16 17 18 19 19 19 19 19 20 21 22 22 21 21 22 22 21 20 19 19 19 20 21 21 20 19 19 18 17 16 16 16 16 15 16 16 15 13 8 8 15 17 15 14 13 14 14 9 7 9 9 10 11 11 11 10 10 9 9
13 12 11 11 11 9 8 8 8 8 8 8 9 10 10 10 10 11 11 11 11 12 13 14 15 16 17 18 19 19 20 20 20 20 22 23 24 24 24 24 24 24 24 24 23 22 21 21 20 20 21 22 22 22 21 19 18 19 19 18 19 19 18 18 13 9 12 18 18 16 15 16 15 13 11 11 11 11 13 13 11 9 9 8 9
14 13 13 12 11 11 10 10 9 9 10 10 10 10 10 11 11 12 12 12 12 13 14 15 16 17 18 18 19 19 19 20 20 21 22 23 24 26 26 27 27 26 26 26 25 24 24 24 22 20 20 23 23 23 24 23 21 21 22 22 21 20 20 21 19 15 14 19 21 19 18 17 16 14 12 12 11 11 14 16 13 10 9 8 8
15 15 15 14 13 12 12 11 11 11 11 11 11 11 12 12 12 13 13 13 13 14 14 15 16 17 18 19 19 20 21 22 22 22 23 23 24 25 27 28 29 28 28 27 26 25 26 26 26 24 22 23 25 25 25 25 24 23 23 24 24 22 21 22 23 22 19 18 20 22 21 20 18 15 12 13 13 14 16 17 15 12 10 9 9
15 15 15 15 14 14 13 13 12 12 12 12 11 11 11 11 12 13 14 15 16 17 18 18 19 20 21 22 22 22 22 23 23 23 24 25 26 26 27 27 29 30 30 29 28 26 26 27 28 27 26 26 25 26 26 26 26 26 26 26 26 25 24 23 25 25 23 21 22 24 23 22 21 18 14 15 16 16 17 18 17 15 12 12 12
15 14 14 14 14 14 14 13 13 13 13 13 12 13 13 14 14 15 15 15 15 16 17 17 18 19 21 22 23 24 25 25 25 25 25 26 26 26 26 26 27 27 27 27 27 26 26 27 28 28 29 29 29 28 27 26 27 28 29 28 29 28 27 26 26 26 26 25 25 25 24 23 23 21 18 17 18 19 19 19 18 17 15 14 14
16 14 13 12 13 14 14 14 14 13 12 11 10 10 9 9 9 9 10 10 11 12 13 14 15 15 16 16 17 17 18 19 19 19 19 20 20 20 22 22 21 21 21 22 24 26 25 23 24 24 26 28 29 28 27 28 27 28 29 30 31 31 29 28 27 26 25 25 24 24 25 24 24 23 22 21 20 19 19 18 18 19 18 16 15
17 15 14 14 13 12 11 10 8 6 3 3 6 8 10 11 12 12 13 14 15 15 16 16 16 17 17 17 17 16 16 15 15 15 15 15 14 14 15 15 15 17 18 20 22 24 23 21 21 22 23 23 24 23 23 25 26 27 28 28 30 31 31 30 28 26 25 24 23 24 24 23 23 24 24 22 19 18 19 19 19 21 22 21 19
17 16 15 13 9 5 2 1 4 7 10 12 13 14 14 14 15 15 16 17 17 17 17 19 19 19 19 18 17 16 16 17 17 17 16 15 14 13 11 11 12 14 16 17 19 20 21 20 20 20 21 20 21 21 20 19 21 23 23 23 23 25 27 28 27 26 25 22 22 22 20 19 22 22 22 22 20 20 22 19 19 22 24 24 22
17 14 10 6 2 5 9 12 14 15 15 15 16 15 15 15 16 17 18 18 18 18 19 20 21 21 20 19 17 17 18 19 19 18 18 17 16 14 12 11 12 13 14 16 17 19 19 20 20 19 19 19 19 19 19 18 18 18 18 20 21 20 20 22 23 23 22 20 21 21 17 17 22 23 23 25 25 24 22 18 19 22 22 20 20
12 8 7 10 13 16 17 17 17 17 17 17 17 16 15 16 18 18 18 18 17 18 19 19 20 20 19 17 17 18 19 19 19 19 19 18 17 16 15 14 13 13 14 15 16 18 18 18 18 19 19 18 18 19 21 21 21 20 20 20 21 22 21 22 21 19 18 18 19 19 17 18 23 25 25 26 26 25 23 21 21 21 19 14 12
13 16 18 20 20 19 19 18 18 18 17 16 16 15 15 17 18 18 18 18 16 17 18 18 19 19 17 16 17 19 20 20 20 20 20 20 18 17 17 16 16 15 15 15 16 17 18 18 18 18 18 18 19 19 20 21 21 21 20 18 20 22 22 23 24 23 23 21 20 20 19 20 23 26 27 26 26 26 24 22 21 21 21 18 15
23 23 22 21 21 20 19 18 18 18 16 16 15 15 16 17 18 18 18 17 17 18 18 17 18 17 15 16 18 21 22 22 22 22 22 22 21 19 18 17 17 16 16 16 16 16 17 19 19 19 19 19 19 19 19 20 20 20 19 17 19 21 22 22 23 25 27 27 24 24 25 23 23 27 29 28 27 25 22 20 21 22 23 23 24
26 24 22 21 21 19 18 18 18 17 16 16 16 17 17 16 17 17 18 18 19 20 20 19 18 16 15 16 19 21 23 22 23 23 23 23 22 21 20 19 19 19 19 19 18 17 18 19 20 20 19 18 18 18 18 19 20 20 19 18 19 20 21 22 23 24 26 29 30 31 32 30 29 31 31 27 26 25 23 22 22 24 26 28 30
25 24 22 20 19 18 17 17 17 16 16 16 16 16 16 15 16 18 19 20 21 22 21 20 18 16 15 15 18 21 22 22 23 24 24 24 23 22 21 21 21 20 20 21 21 20 20 20 20 20 18 16 16 16 18 20 21 21 21 20 20 20 19 20 22 23 24 26 30 34 36 36 35 36 34 28 25 24 23 22 20 20 23 25 27
25 23 21 20 18 17 17 17 17 16 15 15 16 16 15 15 16 17 18 19 20 22 22 20 17 15 14 15 17 20 22 23 24 25 26 26 25 24 24 23 22 22 21 21 22 22 22 22 22 21 18 16 16 19 22 23 23 22 22 21 21 21 21 20 20 21 22 23 25 30 34 36 36 37 38 34 32 31 27 24 21 20 18 18 19
24 22 20 19 17 16 16 16 16 15 14 14 15 15 14 14 15 15 16 18 20 21 22 21 16 13 14 15 16 20 22 24 25 26 26 26 26 26 26 25 25 25 24 24 23 23 23 23 23 22 21 19 21 24 26 27 27 24 22 22 23 24 25 24 21 21 21 21 23 25 28 31 32 34 36 36 36 35 29 24 23 22 17 12 12
23 21 20 18 17 16 16 16 16 14 13 12 12 12 12 12 13 15 16 18 18 19 20 21 18 13 13 15 15 18 22 24 26 26 25 25 26 27 27 27 27 27 26 26 25 24 24 23 23 23 23 24 25 27 28 30 30 27 24 22 22 25 27 27 25 23 23 22 23 22 23 25 26 29 31 32 33 33 30 28 27 22 16 12 12
21 20 18 16 16 15 14 14 14 14 12 10 9 10 11 11 12 13 15 17 18 17 17 20 18 13 11 12 13 16 20 23 24 24 23 24 26 27 28 28 27 27 27 27 27 27 27 27 26 26 26 27 28 29 29 28 28 26 24 21 21 25 27 27 26 26 25 25 25 24 25 24 24 26 28 29 30 31 32 33 31 27 23 20 18
20 19 17 17 16 13 12 12 11 12 12 9 8 9 10 10 10 10 12 14 16 16 16 17 17 13 9 8 10 13 16 19 21 22 22 22 23 26 27 27 26 26 26 26 27 29 30 30 29 28 28 28 28 28 27 26 26 26 25 22 21 23 25 25 24 24 24 25 25 25 25 24 24 24 25 26 28 29 30 32 30 31 31 28 25
18 17 16 16 14 12 11 11 10 11 11 10 10 10 9 8 7 8 10 12 14 15 14 14 15 13 9 7 7 10 12 15 17 18 19 19 21 24 27 26 25 25 26 26 27 28 30 31 30 28 27 28 28 28 27 26 27 27 27 25 24 25 25 24 24 23 23 24 25 25 25 25 25 25 24 25 26 26 27 29 29 30 33 32 29
16 16 16 15 14 12 11 11 10 10 11 12 13 11 8 6 5 6 8 10 12 13 12 11 11 11 9 6 6 8 11 12 13 15 16 17 19 23 26 26 25 25 26 27 28 29 30 30 28 27 27 27 27 28 27 27 27 28 27 26 25 25 25 23 22 22 22 22 23 24 26 26 26 26 26 25 26 26 26 28 28 28 30 32 32
15 16 16 15 13 11 11 11 9 8 9 11 11 9 7 6 4 4 7 10 11 10 9 8 8 8 7 5 5 7 9 10 11 11 13 15 19 23 25 26 26 27 27 27 29 29 28 27 26 26 26 26 27 28 29 29 30 30 30 28 26 25 25 23 21 20 21 21 21 22 24 24 24 24 24 24 25 26 27 28 29 29 29 30 31
17 15 14 14 13 11 10 8 6 5 6 7 9 10 10 7 4 4 6 9 9 8 7 5 5 6 7 7 7 8 9 9 9 9 11 14 19 23 25 26 28 30 30 29 28 27 26 25 25 25 25 26 27 27 28 30 31 31 31 30 28 26 25 24 22 21 21 21 21 21 22 23 23 23 24 25 25 25 25 25 26 27 28 28 29
17 14 13 13 12 10 8 7 7 6 6 8 12 15 15 12 6 4 4 7 8 8 8 6 5 6 7 9 11 11 11 11 9 8 10 14 20 24 25 27 30 32 31 28 25 24 24 23 23 23 24 26 26 26 28 29 30 30 30 31 30 28 27 26 24 22 21 21 21 22 23 25 25 25 25 26 25 25 24 23 23 23 25 27 28
15 13 14 13 10 10 10 11 13 13 12 14 15 16 15 15 10 4 1 2 6 10 12 11 10 10 11 13 15 16 17 16 12 10 11 15 21 24 26 28 31 30 28 24 21 22 22 22 22 23 24 25 26 26 27 27 27 28 29 30 30 30 30 29 26 23 22 22 22 23 25 26 26 25 25 25 25 24 23 22 21 21 21 23 23
15 13 13 13 12 12 13 14 15 16 15 15 16 15 14 14 14 11 6 5 8 13 16 17 16 15 16 17 17 18 19 18 16 14 13 15 20 25 27 28 28 27 25 22 21 21 21 21 22 23 24 24 25 27 27 28 28 29 29 29 29 29 29 28 26 25 23 22 22 23 24 24 25 25 25 25 25 25 24 22 20 20 21 21 20
17 14 14 13 13 14 15 15 15 15 15 14 15 15 14 14 16 17 14 12 12 14 17 17 16 15 14 15 16 18 19 19 17 15 14 16 21 26 26 25 25 25 24 22 20 20 20 20 22 24 26 27 28 28 29 29 28 28 28 28 28 27 28 27 26 26 26 24 24 25 25 25 25 25 25 24 25 25 25 23 20 20 20 18 15
17 15 14 14 14 14 14 13 13 14 13 13 14 14 13 15 15 15 16 17 17 18 19 18 16 15 15 17 19 19 20 20 19 17 16 18 21 23 22 21 23 23 21 18 18 18 19 22 25 27 28 29 29 29 29 29 28 27 26 27 27 27 28 28 27 26 26 26 26 26 26 26 25 25 25 25 26 26 26 24 22 21 21 18 15
17 14 13 13 14 14 13 12 12 11 11 11 12 12 12 14 15 15 17 19 19 19 20 19 17 17 19 21 21 20 19 19 19 19 18 18 19 20 20 20 21 20 17 16 17 18 20 22 24 25 25 25 25 26 27 27 27 27 25 25 25 26 27 28 27 25 25 25 26 26 25 25 24 25 25 25 26 27 26 25 24 22 21 18 17
18 14 12 12 14 13 13 12 11 10 10 10 11 11 11 13 15 16 17 18 17 18 20 20 18 18 20 21 21 19 18 18 18 18 17 17 19 21 20 19 18 17 15 14 16 18 19 20 21 21 21 22 22 23 24 24 24 25 25 25 24 24 25 26 25 24 24 24 25 25 25 24 24 25 25 25 26 26 26 26 25 23 22 19 17
18 14 12 14 15 13 12 11 10 10 10 10 11 12 12 14 15 15 15 16 16 17 19 20 17 16 18 21 21 20 20 20 20 19 17 16 19 20 18 17 17 15 13 15 17 17 17 17 17 17 19 19 20 21 22 22 22 23 24 24 25 24 24 24 24 23 22 22 23 24 24 24 24 25 25 25 26 26 25 25 25 23 22 21 19
15 14 14 15 14 11 10 10 10 10 10 11 12 14 15 14 14 14 15 15 15 16 18 19 17 15 17 20 21 21 21 20 20 19 17 16 18 18 17 17 17 14 13 16 17 15 14 14 14 15 16 16 17 19 19 19 20 20 21 22 24 24 24 23 22 21 20 19 21 23 24 24 25 27 27 26 25 24 24 24 24 24 23 21 20
13 14 15 14 12 10 10 10 9 10 11 12 14 16 15 14 13 14 14 15 15 16 17 18 17 16 18 21 22 22 21 19 17 17 17 18 18 17 16 17 16 13 14 17 16 14 12 12 13 14 14 14 15 16 18 19 19 19 19 20 21 22 22 22 21 20 18 16 19 22 24 24 25 27 28 27 25 24 23 23 23 23 23 22 22
15 16 14 12 12 12 11 10 9 10 12 14 15 15 14 14 14 14 14 14 14 15 16 17 17 17 18 20 21 21 19 17 17 18 18 19 19 17 17 19 18 15 15 17 16 15 12 11 13 14 14 14 14 16 17 19 19 18 19 19 19 20 21 20 19 18 15 14 17 21 22 23 24 25 26 25 24 23 23 23 23 22 22 23 23
18 16 13 12 12 11 10 9 10 12 14 14 14 13 13 13 13 13 13 13 13 14 16 16 17 17 17 18 19 19 18 17 18 19 20 21 20 20 20 21 20 17 15 16 17 16 14 14 15 16 15 14 15 16 17 18 19 19 19 18 18 19 19 19 19 18 14 13 17 21 21 21 22 23 23 24 24 23 22 22 23 23 22 23 23
17 14 13 13 12 10 10 11 12 14 14 13 13 12 12 12 12 12 12 11 11 13 16 17 17 16 17 18 20 20 19 17 19 21 23 23 22 22 22 22 21 19 18 19 20 19 18 17 17 16 16 16 16 17 18 18 18 18 18 18 18 18 18 19 19 18 15 14 18 20 19 19 20 20 21 23 25 25 23 22 22 23 23 23 23
14 13 13 12 10 10 12 13 14 14 13 12 11 11 11 10 10 11 11 11 12 14 16 17 17 16 17 18 19 19 18 18 21 23 24 24 24 23 22 22 22 22 21 22 22 22 21 20 19 18 18 18 19 20 20 20 19 19 19 18 18 19 19 19 18 16 15 16 19 20 18 17 18 19 20 22 24 26 25 23 22 22 23 23 22
12 12 13 11 11 12 14 15 15 13 12 12 10 9 8 8 10 11 11 11 13 14 15 16 16 15 15 16 17 17 18 19 21 22 23 23 23 23 22 22 23 23 23 23 23 23 22 21 21 19 19 19 20 21 21 21 21 21 20 19 19 20 20 19 17 16 15 17 20 21 19 18 19 20 21 21 22 23 24 24 23 22 22 22 22
12 12 12 12 13 14 14 14 14 12 11 10 9 8 7 8 10 11 11 11 13 14 14 14 14 14 14 14 14 15 16 16 17 19 20 20 21 21 21 22 23 24 24 23 23 23 22 20 19 20 21 21 21 21 21 21 21 21 21 20 20 21 20 18 17 16 16 18 20 21 21 21 22 22 22 22 22 22 22 23 23 23 22 22 23
11 12 13 14 15 15 14 14 13 12 10 9 8 8 9 10 11 11 10 11 13 13 12 13 13 13 13 12 11 13 13 13 14 17 18 18 18 17 19 20 22 23 23 23 22 22 22 20 19 20 21 22 22 22 21 20 21 22 22 21 21 20 20 18 18 17 16 18 20 21 22 23 23 22 23 23 22 22 21 21 21 22 22 22 23
9 12 14 15 15 15 15 14 13 11 9 8 8 9 10 10 10 11 11 11 12 11 11 11 12 13 13 11 9 10 12 13 14 17 18 18 17 16 16 18 20 22 23 22 21 21 22 21 19 20 21 21 21 21 20 20 21 22 22 22 22 21 20 18 16 16 17 20 21 22 23 24 24 24 24 23 21 20 20 20 21 21 22 23 23
11 14 16 15 15 14 14 13 12 10 8 7 8 10 10 10 10 10 10 11 11 10 10 11 12 13 14 11 8 9 12 13 15 17 18 18 17 16 15 17 19 21 21 21 19 20 22 22 21 20 20 21 21 20 20 21 21 21 21 22 23 21 18 15 16 18 20 22 23 23 25 26 26 26 26 24 21 20 19 20 21 21 21 23 23
14 15 16 15 14 13 11 10 9 8 8 9 10 11 10 10 10 10 10 10 10 9 10 11 13 14 15 11 8 9 12 14 15 17 17 17 18 17 16 18 20 21 21 19 19 20 22 23 21 20 21 22 21 20 22 23 22 21 21 21 20 18 16 17 18 20 21 22 24 25 27 28 28 28 27 25 23 21 21 21 22 22 22 22 23
14 15 15 14 13 11 10 9 8 7 9 11 12 12 12 11 10 9 10 11 10 9 10 12 14 15 15 12 9 10 12 14 15 16 16 16 16 16 16 19 22 21 19 18 20 21 22 22 21 22 23 23 22 22 23 24 22 20 18 17 17 18 19 19 20 21 22 23 24 26 28 29 30 30 29 27 25 24 23 23 23 23 23 23 22
14 14 14 13 12 11 10 9 9 10 11 12 12 12 12 12 10 9 9 10 9 8 10 13 15 15 15 11 8 9 12 12 12 13 14 14 16 17 18 19 19 18 19 21 22 23 23 23 23 24 24 24 23 23 24 22 20 17 16 17 20 22 21 21 22 24 25 26 26 27 29 30 31 31 30 28 26 25 24 24 23 23 23 23 23
13 14 13 12 12 11 10 11 11 13 13 12 11 11 11 11 10 9 9 9 8 8 11 13 13 13 11 9 7 8 10 11 12 14 15 17 19 20 19 18 17 18 21 23 23 23 22 22 22 22 23 24 24 24 23 21 18 16 18 22 24 24 23 23 25 27 29 29 29 29 29 30 30 31 30 28 26 25 24 24 24 23 23 23 23
12 14 13 12 12 11 11 12 13 13 13 12 11 11 11 10 10 9 8 9 9 10 12 12 11 9 8 7 7 9 11 13 14 16 18 20 21 21 20 19 19 20 22 24 24 23 21 21 21 22 23 24 23 23 21 19 17 18 22 25 25 24 24 26 28 29 31 31 30 30 30 30 30 30 29 28 28 26 25 24 24 23 22 23 24
13 14 13 12 11 11 12 13 14 13 12 11 10 10 11 11 11 10 9 9 10 11 11 10 9 9 9 9 10 11 13 15 17 18 19 21 21 21 20 20 20 22 24 26 25 22 20 22 24 24 24 22 22 21 20 19 19 22 25 27 26 25 26 28 29 30 30 31 30 30 30 30 29 29 29 29 29 28 26 24 23 22 22 23 24
14 14 13 12 12 13 14 14 13 12 11 11 10 10 10 11 11 10 9 9 10 11 10 9 9 10 10 10 11 13 14 16 17 18 20 21 20 20 20 20 21 24 25 24 22 21 23 25 25 23 22 21 21 21 21 21 22 24 27 27 26 26 27 29 30 30 29 30 30 31 30 29 28 28 28 28 28 27 26 24 23 21 21 22 23
13 13 12 13 15 16 16 14 13 12 12 11 10 10 10 10 10 9 9 9 9 9 8 9 10 10 10 11 12 14 15 16 17 17 18 19 19 20 21 22 23 24 24 22 22 23 25 25 23 22 21 21 22 22 22 23 24 26 27 27 27 28 30 31 32 30 29 30 30 30 28 27 26 27 27 28 27 26 25 25 24 23 23 23 23
Wind_Direction
209 213 214 214 217 220 226 237 245 252 258 263 270 275 275 275 281 289 289 289 290 289 288 290 290 289 287 285 282 280 279 277 275 271 266 265 263 261 261 258 255 256 257 257 258 260 263 266 269 268 263 260 260 257 252 255 259 258 257 257 256 256 256 245 230 262 282 286 288 289 293 293 291 286 244 232 255 279 284 287 286 276 265 250 242
216 218 218 218 223 228 234 240 243 248 252 259 265 269 272 276 281 283 282 286 288 286 287 288 290 289 288 288 287 285 284 283 281 277 273 270 267 263 260 257 256 256 255 256 258 260 261 262 265 267 264 261 260 258 256 255 256 256 254 253 252 253 252 249 242 246 272 281 284 286 290 291 287 276 262 257 264 279 289 291 291 288 278 261 249
225 226 226 227 230 232 237 241 244 248 252 258 264 269 274 279 281 279 281 287 289 287 289 289 288 287 286 286 285 283 284 284 283 279 277 276 273 268 264 259 256 255 255 256 258 260 260 260 261 262 261 260 259 258 257 256 255 255 256 254 251 251 250 248 246 243 254 271 278 281 284 288 288 281 268 259 260 272 284 286 286 287 282 269 253
233 232 232 234 236 237 240 242 243 248 255 261 266 272 277 280 282 282 284 289 291 293 294 293 290 288 285 284 283 282 281 281 281 279 278 278 277 274 271 265 260 257 255 256 258 259 259 259 260 261 261 260 260 259 257 256 256 255 255 255 250 249 249 247 246 245 246 257 268 274 278 281 285 286 272 261 262 269 276 278 275 275 279 274 258
230 230 232 235 236 236 238 240 244 250 257 263 269 274 277 280 284 286 288 291 294 296 296 296 294 292 289 287 285 283 283 282 280 279 280 281 279 278 275 271 267 264 260 258 258 260 261 263 264 264 262 260 261 262 259 257 257 255 255 253 249 248 250 248 247 247 244 247 258 267 271 273 277 282 279 273 275 278 281 279 269 261 267 268 255
219 221 225 229 233 235 237 238 242 248 257 265 273 280 285 289 293 297 301 303 305 308 310 311 311 309 307 303 297 293 291 289 286 285 285 284 284 285 282 277 273 269 265 264 264 264 265 267 270 270 268 265 262 263 263 260 257 255 254 253 250 249 248 247 248 247 244 246 253 259 263 265 269 274 276 276 280 283 286 287 273 254 252 256 247
211 213 215 219 226 229 233 238 243 255 269 280 291 303 314 323 333 344 350 353 355 355 354 353 351 350 348 343 337 329 321 316 311 307 304 301 298 297 293 287 279 270 267 271 273 273 272 273 274 277 280 277 270 266 268 267 263 259 256 254 253 250 248 248 248 246 244 246 249 252 256 258 262 267 270 274 278 280 281 282 271 252 244 243 239
210 209 211 215 222 229 240 251 260 275 307 16 41 43 44 42 39 35 30 27 26 24 22 17 12 10 10 11 15 15 10 3 353 344 338 333 328 319 308 296 284 277 279 283 281 277 276 279 278 277 280 283 279 275 275 276 273 268 263 260 256 251 248 247 247 245 244 243 243 245 248 252 257 262 268 271 270 272 275 272 264 257 248 240 239
211 209 214 222 232 246 251 138 102 94 88 78 68 59 51 46 41 35 33 34 35 34 31 26 20 17 15 17 21 22 20 16 10 4 360 357 355 349 334 314 298 293 293 292 285 278 275 277 280 281 282 285 287 283 281 281 277 272 271 270 267 261 256 252 249 244 239 237 238 241 241 246 251 255 260 264 263 267 274 270 262 261 254 243 241
214 212 219 222 172 117 110 106 100 91 80 69 60 54 49 44 39 37 37 38 37 34 29 27 25 22 21 23 25 24 23 22 19 18 18 17 17 16 7 347 329 316 310 307 300 293 288 285 287 293 293 293 296 293 289 289 288 282 278 273 271 272 270 265 258 250 241 236 235 234 231 237 246 248 252 259 264 268 270 265 260 259 251 243 243
204 184 147 120 116 113 106 97 88 79 70 64 61 56 50 43 39 38 35 32 33 32 28 27 25 21 23 29 31 31 32 30 28 28 30 32 33 33 28 16 4 352 341 334 326 319 316 314 313 313 309 307 306 301 297 296 297 294 288 280 275 273 270 266 264 260 258 256 250 242 234 236 244 247 250 257 262 264 265 264 260 251 237 230 239
146 129 119 113 109 102 96 88 81 75 69 66 64 58 52 46 40 35 29 26 30 32 31 31 24 19 25 36 41 43 43 40 39 38 39 40 40 39 38 32 25 19 10 1 352 345 343 343 342 340 336 332 326 318 313 312 312 308 300 291 283 276 270 264 261 258 258 260 261 257 249 248 252 251 250 255 260 263 265 263 257 246 232 224 225
128 120 113 107 102 97 93 88 82 77 71 66 61 56 52 48 43 38 34 33 36 35 35 33 25 24 38 48 49 51 50 46 45 44 42 41 40 40 40 37 33 29 22 16 9 2 358 355 352 350 349 348 344 340 335 331 330 326 317 307 295 288 283 277 269 263 256 252 252 254 254 256 260 258 256 256 258 259 260 257 253 244 234 229 230
121 115 110 105 101 97 94 89 84 79 70 62 57 54 52 49 47 48 47 44 42 40 39 37 34 41 55 58 56 56 53 48 44 42 40 38 37 37 37 36 35 32 28 24 21 17 13 9 3 360 359 359 357 355 352 347 343 339 335 329 319 311 304 294 284 277 268 258 253 252 253 254 255 259 263 264 260 257 255 254 254 248 240 239 241
116 113 109 104 99 97 94 89 83 74 66 62 60 57 55 54 56 58 55 50 47 47 47 46 49 56 57 56 61 60 53 47 42 38 36 33 31 31 30 28 28 28 26 24 22 21 19 14 10 8 8 8 8 5 359 355 350 346 342 337 331 326 318 308 298 291 284 274 265 259 256 254 255 258 261 263 263 263 260 258 259 259 254 248 245
114 111 106 101 97 93 90 86 79 72 67 67 65 62 63 65 64 61 56 53 52 52 51 50 53 58 56 57 63 61 52 45 39 34 31 28 26 26 25 23 21 21 21 19 18 18 18 13 9 8 7 5 1 356 351 348 345 342 337 332 328 325 319 316 313 306 299 292 283 273 266 262 263 264 263 262 261 262 263 264 264 262 255 244 239
112 108 102 97 91 87 86 84 78 73 73 75 73 70 72 71 64 58 54 53 52 52 51 50 52 60 64 64 64 59 50 41 34 30 28 28 27 25 22 19 17 15 14 14 13 13 14 11 6 3 360 353 346 343 342 341 339 336 330 324 321 317 314 316 318 314 310 305 297 289 280 275 273 271 269 267 264 260 258 260 261 257 247 232 232
109 104 98 92 87 86 87 84 78 75 76 79 79 80 82 77 66 60 56 53 52 49 47 49 54 65 71 70 65 57 48 38 30 28 29 29 29 25 20 16 14 11 8 7 8 9 9 7 4 360 353 347 343 340 336 334 331 329 325 319 312 306 308 313 314 312 312 310 306 301 295 290 284 279 275 272 269 264 256 250 251 252 247 237 241
107 101 98 92 85 84 86 86 81 75 71 76 86 93 93 84 71 64 58 53 51 46 41 46 57 73 81 73 64 53 42 34 30 28 27 26 25 23 19 14 12 9 6 5 5 5 4 2 360 356 350 346 343 339 335 333 331 328 324 315 302 301 309 313 310 307 307 307 307 305 301 299 297 293 288 283 280 274 265 257 249 243 242 243 243
108 105 101 93 84 83 88 93 89 73 66 76 96 100 99 90 75 66 62 55 51 47 41 44 57 72 81 71 57 44 33 29 28 26 25 23 21 20 18 14 10 7 5 4 2 360 359 357 355 354 351 347 345 343 342 341 339 335 330 319 305 309 318 317 308 305 303 301 303 302 299 298 298 299 299 298 293 285 276 268 255 240 238 240 239
111 108 105 98 94 93 93 98 96 79 73 86 97 97 101 97 76 66 64 56 50 50 46 44 52 64 70 61 44 30 21 19 20 19 18 19 19 18 16 14 9 5 3 2 359 356 354 353 353 354 353 352 354 357 357 355 352 348 342 333 324 323 323 318 314 312 306 302 304 303 299 297 297 299 303 304 301 295 285 278 267 250 241 238 236
111 109 108 107 107 106 100 98 96 86 85 96 97 92 98 102 79 67 69 60 55 55 51 46 48 54 58 51 28 12 7 7 8 8 10 15 18 17 14 12 10 6 2 359 356 354 352 352 354 357 0 5 11 14 14 13 11 8 3 356 347 341 334 327 324 323 318 313 311 308 307 306 302 302 304 304 302 300 294 287 279 268 257 249 242
113 110 111 111 109 108 105 103 99 93 95 100 96 90 99 108 97 79 71 62 54 51 49 46 42 39 36 26 4 351 349 352 356 357 1 11 17 16 13 11 10 6 2 358 354 353 355 356 360 5 12 18 20 21 22 23 22 21 20 19 14 8 359 350 341 337 333 329 323 318 318 317 312 308 307 306 305 303 300 295 287 278 271 265 256
117 114 118 118 111 106 106 102 96 96 99 93 80 75 77 82 104 112 77 59 49 40 34 30 23 18 10 357 345 336 332 336 342 348 356 9 15 13 11 10 7 4 2 359 357 358 0 3 9 16 22 24 23 22 23 24 23 23 24 24 23 21 16 6 355 346 340 336 330 326 326 326 322 317 313 312 312 309 304 300 295 286 278 273 267
123 124 131 129 117 106 99 88 77 80 92 86 72 65 60 57 74 121 92 59 46 28 13 358 347 348 345 342 342 338 332 331 333 339 352 6 12 10 8 7 4 1 0 1 4 7 9 13 20 24 25 24 24 24 23 23 24 25 25 25 26 26 24 19 10 359 349 341 334 328 329 332 331 327 326 325 324 320 312 304 302 299 289 278 269
131 134 135 128 118 110 101 91 83 84 90 86 72 61 55 52 55 78 132 33 22 16 10 1 350 342 336 335 338 338 337 340 346 350 353 1 6 7 5 3 1 0 2 6 12 15 19 26 30 27 25 25 26 25 22 20 21 22 23 24 24 23 22 22 19 12 0 348 340 335 335 337 337 337 339 338 335 333 327 317 309 305 297 286 278
143 141 129 116 113 110 101 92 88 89 90 83 66 56 54 49 43 42 34 360 358 8 11 8 4 357 348 345 347 348 350 352 355 353 351 355 0 1 0 359 360 1 4 10 17 23 29 34 32 28 26 24 21 20 19 16 15 15 15 17 20 19 18 19 20 17 10 360 353 350 348 349 350 349 348 345 341 341 340 332 320 312 305 295 284
145 135 121 112 109 107 98 89 88 89 88 75 57 51 51 45 44 49 50 41 29 25 24 23 21 14 8 8 13 14 14 11 7 359 352 352 356 359 0 1 3 4 5 10 20 29 31 29 25 22 21 19 16 15 14 13 13 13 11 13 16 17 16 17 18 17 15 12 10 8 5 4 2 360 357 353 348 348 347 343 335 326 320 307 286
137 129 123 116 113 109 100 91 87 86 81 65 53 52 49 43 46 55 58 55 50 44 41 41 41 40 43 42 37 33 30 26 22 16 6 359 359 2 6 5 4 7 13 22 32 34 28 24 22 20 18 17 14 12 9 8 9 10 10 12 14 13 13 15 15 14 14 14 14 12 10 8 5 4 2 356 352 353 354 352 348 342 335 323 305
137 137 132 124 122 118 107 98 90 82 71 55 49 51 47 45 52 60 60 57 55 51 48 48 50 57 59 53 44 39 34 28 23 18 10 4 3 5 6 4 3 10 22 32 36 34 30 26 24 22 21 19 15 10 7 4 3 2 4 7 10 10 8 8 10 11 11 11 10 9 8 6 2 1 360 355 351 352 354 354 353 351 345 333 318
140 140 136 129 126 119 107 100 92 80 69 56 47 44 48 58 65 64 57 56 58 57 53 52 57 64 59 48 41 37 31 25 19 13 9 6 4 3 2 2 6 15 23 26 29 33 32 28 25 23 22 19 14 8 5 2 359 357 356 358 2 4 3 3 5 7 7 7 7 8 8 6 2 359 357 354 351 350 351 353 352 350 346 340 330
142 138 133 128 124 116 105 100 95 83 69 56 51 56 67 72 68 60 57 59 61 60 55 52 59 63 49 36 32 30 24 19 14 10 9 9 5 1 2 8 14 18 20 21 27 32 31 28 28 25 20 15 11 6 2 0 358 355 352 351 352 354 356 358 1 3 5 7 8 8 7 5 2 358 355 353 352 350 349 350 350 347 343 339 334
141 137 135 130 122 113 105 99 91 77 63 60 71 80 81 76 66 59 60 62 60 56 51 47 48 48 38 30 27 22 14 7 5 8 14 14 8 5 9 15 18 18 16 19 25 27 24 23 25 21 17 13 7 1 360 358 355 352 351 349 347 348 350 354 358 0 2 5 9 10 7 4 1 357 354 351 350 347 345 345 346 345 343 339 333
143 145 142 133 122 112 106 99 84 71 70 80 89 88 81 76 70 61 59 60 57 51 46 42 39 37 33 30 27 21 13 10 15 22 25 20 14 11 12 13 15 17 18 21 22 19 16 18 18 14 11 7 1 358 359 357 352 349 348 347 347 348 348 351 356 357 356 1 7 7 3 0 358 356 353 349 346 343 340 341 342 342 341 338 333
147 144 135 126 119 113 107 97 83 83 92 94 91 85 79 76 70 59 58 64 61 52 46 44 40 36 32 30 27 22 20 25 31 31 26 19 14 12 13 15 16 17 17 18 16 12 10 9 6 3 360 356 354 356 358 358 354 350 347 345 346 346 346 348 350 349 348 356 2 359 355 355 354 353 350 346 343 340 336 334 335 335 334 334 331
142 133 125 124 122 114 106 97 94 102 105 97 87 84 81 75 65 56 58 65 61 53 50 47 41 34 31 30 28 23 23 30 34 31 27 24 21 21 21 19 16 14 14 13 10 6 1 356 353 352 350 347 347 349 351 354 354 352 350 348 346 344 344 344 343 340 339 347 351 349 348 349 350 349 347 343 340 337 332 329 329 328 328 329 327
132 123 125 129 126 116 111 109 110 112 106 92 84 83 79 70 59 52 55 60 59 56 52 45 40 38 36 34 30 25 24 30 34 31 28 27 26 26 24 19 16 15 14 10 5 359 354 350 348 347 345 342 341 342 344 347 348 349 349 348 345 343 343 341 338 336 336 339 343 344 345 346 345 346 344 341 338 335 332 327 326 324 323 324 325
123 124 133 135 131 126 123 122 120 113 99 87 84 82 77 68 57 53 60 66 64 58 52 48 49 49 43 35 28 22 23 28 29 26 24 23 21 20 19 20 20 18 14 10 8 4 359 356 354 351 347 344 341 339 338 337 338 340 341 341 340 341 341 339 336 335 335 335 339 342 343 341 340 341 340 337 334 332 329 325 323 322 321 322 323
122 131 140 139 135 132 129 126 122 109 93 87 86 78 71 67 63 65 73 74 66 59 55 55 56 52 42 33 25 21 25 32 31 25 22 21 20 21 22 22 20 16 11 8 6 3 2 1 360 358 355 352 349 347 344 341 337 334 332 332 332 334 335 336 334 332 331 334 338 340 339 336 335 335 333 331 329 327 324 321 320 319 318 317 319
128 137 142 139 134 131 127 123 117 104 92 87 79 67 71 78 74 73 76 73 65 59 58 58 56 46 36 32 26 24 30 38 36 27 22 21 22 23 20 15 12 10 7 4 0 359 359 359 359 359 359 358 356 354 351 349 346 342 338 334 330 328 329 331 326 321 326 334 337 336 334 332 331 330 327 326 325 321 317 315 316 317 315 314 315
126 133 140 137 131 128 124 118 112 103 92 82 72 76 91 91 77 70 74 72 64 60 60 60 53 42 36 35 30 27 34 39 34 27 23 22 20 17 12 9 7 5 2 357 354 352 351 351 351 352 354 355 354 352 350 349 349 347 343 339 334 329 326 322 317 317 328 337 338 335 331 329 327 326 324 323 321 318 314 311 310 312 313 313 313
125 131 136 133 128 124 121 116 112 104 91 81 83 96 102 92 74 72 78 74 63 58 59 56 46 36 34 33 25 22 26 27 23 20 18 15 13 10 5 2 359 357 355 352 348 345 344 342 340 343 347 348 349 349 348 347 346 343 339 336 333 327 320 315 319 330 339 340 337 333 329 326 325 323 322 322 319 315 312 309 306 306 308 309 310
129 131 132 130 125 121 118 116 113 101 87 88 99 103 98 83 73 77 82 70 58 55 56 49 38 29 26 21 10 7 12 14 13 12 11 10 8 4 359 355 350 347 347 346 345 343 341 335 331 337 343 343 343 344 344 342 340 338 336 333 329 324 322 327 338 344 343 338 334 331 327 325 323 321 320 321 318 312 308 305 304 302 302 304 305
131 131 132 130 124 118 114 114 109 96 90 100 104 97 83 73 73 79 76 62 55 57 55 44 32 24 18 9 355 355 4 9 10 10 10 8 6 2 357 351 347 344 345 346 346 345 341 334 332 337 341 340 340 340 337 335 335 335 333 331 332 335 342 346 345 343 339 334 331 328 325 323 321 319 318 319 317 312 307 304 301 300 299 299 300
136 136 135 132 125 119 116 112 106 103 106 108 102 88 74 69 72 78 70 57 55 60 50 33 23 17 11 1 352 0 10 14 14 13 11 9 5 0 353 349 347 346 348 348 346 344 341 338 337 337 337 337 337 335 332 332 335 335 333 336 342 346 347 343 338 336 336 333 328 325 322 320 318 317 316 316 315 311 306 302 299 297 297 296 295
147 147 144 140 134 128 124 120 117 118 116 109 99 85 73 66 70 75 66 53 51 48 31 19 16 13 7 2 3 13 18 16 12 9 6 1 356 351 348 347 348 347 345 343 341 339 336 335 335 336 335 334 334 332 332 335 337 335 334 339 343 342 338 335 332 331 332 330 326 323 320 318 315 314 313 312 311 307 302 298 296 294 292 293 292
156 157 154 150 143 135 130 128 126 123 116 106 95 82 69 62 66 70 57 42 35 27 19 16 14 9 7 12 20 18 11 5 1 358 355 352 352 351 349 348 347 345 342 340 339 336 333 333 336 337 335 332 330 330 333 337 337 333 333 337 339 337 333 330 328 327 328 328 325 322 320 316 313 312 312 310 308 305 300 296 295 292 290 290 290
159 158 152 147 143 137 134 132 128 122 115 104 90 77 66 60 60 53 38 28 26 22 18 16 13 8 11 19 16 4 356 354 353 353 353 353 354 355 353 349 346 343 340 338 337 336 335 335 335 335 332 329 329 332 335 337 334 331 332 334 335 334 330 327 325 326 326 325 323 322 321 318 313 311 311 309 307 304 299 295 294 291 290 290 289
156 156 150 144 141 138 136 133 127 120 112 100 85 76 69 60 49 39 32 33 32 26 22 20 18 16 15 10 1 355 353 353 353 353 354 355 355 355 354 350 344 339 336 336 338 338 335 332 332 332 331 332 334 337 338 335 331 330 331 333 332 329 325 324 325 326 326 325 324 323 322 319 314 311 309 308 306 303 298 294 292 290 290 291 289
158 158 152 146 142 138 136 132 122 113 106 96 85 78 67 53 45 44 46 43 34 28 27 26 22 18 12 6 360 357 355 354 354 353 353 353 353 353 351 346 340 336 337 338 338 336 333 331 332 334 336 337 339 338 336 332 329 328 329 329 329 326 324 325 326 327 328 328 325 323 321 319 315 311 309 307 305 302 297 294 292 290 290 289 287
165 161 153 148 144 139 134 128 118 110 104 95 86 76 63 54 55 58 52 42 35 35 35 29 23 18 13 5 360 356 354 354 353 352 352 352 351 349 346 342 339 338 338 338 337 335 334 335 337 339 339 338 337 334 331 328 326 326 327 328 328 327 327 328 328 329 329 327 324 322 322 319 315 311 308 305 302 299 296 294 293 291 289 287 287
Height
796 796 797 797 797 797 797 797 797 797 796 796 796 795 795 794 794 793 793 792 792 791 791 791 790 790 789 789 789 788 788 787 787 787 787 786 786 786 786 786 786 785 785 786 785 785 785 785 785 785 785 785 784 784 784 783 783 783 782 782 781 781 781 780 780 778 776 775 775 775 774 774 773 773 772 772 771 771 770 770 769 768 768 767 767
795 795 796 796 796 796 796 796 796 796 795 795 795 794 794 793 793 792 792 791 791 791 790 789 789 789 788 787 787 786 786 785 785 785 784 783 783 783 783 783 783 783 783 783 783 783 783 782 782 782 782 782 782 782 782 781 781 781 781 780 779 779 779 778 778 777 775 774 773 773 773 772 772 771 771 770 770 769 769 768 768 767 767 766 766
794 795 795 795 795 795 795 795 795 795 794 794 794 793 793 792 792 792 791 790 790 789 789 788 788 787 787 786 785 784 784 783 782 782 781 781 780 779 779 780 780 780 780 780 780 780 780 780 779 779 779 779 779 779 779 779 779 778 778 778 777 777 777 776 776 775 774 772 771 771 771 770 770 769 769 769 768 768 767 767 767 766 766 765 765
793 793 794 794 794 794 794 794 794 793 793 793 792 792 792 791 791 791 790 790 789 788 788 787 786 786 785 784 784 783 782 781 780 780 779 778 777 777 776 776 776 776 776 776 776 777 777 777 776 776 776 776 776 776 776 776 776 775 775 775 775 774 774 773 773 772 771 770 769 769 769 768 768 767 767 767 766 766 766 765 765 765 765 764 763
791 791 792 792 792 793 792 792 792 792 791 791 791 791 791 790 790 790 790 789 788 788 787 787 786 785 784 783 782 781 780 779 778 777 776 775 775 774 774 774 774 774 773 773 774 774 775 774 774 774 773 773 772 772 772 773 772 772 772 771 771 771 771 770 770 769 769 768 766 766 766 766 766 765 765 765 764 764 764 763 763 763 763 762 762
789 789 790 790 791 791 791 790 790 790 790 790 791 791 790 790 790 790 789 789 788 788 787 786 785 784 783 781 780 779 778 777 776 776 775 774 773 772 772 772 772 772 772 772 773 773 773 773 772 773 772 771 769 769 769 769 769 768 768 768 768 768 767 767 767 767 766 765 764 763 764 764 763 763 763 763 762 762 762 761 761 761 761 761 760
787 788 789 789 789 789 789 789 790 790 790 791 791 791 790 790 790 790 789 788 788 787 786 785 784 783 781 780 779 778 777 776 775 774 774 773 772 772 771 770 770 770 770 771 771 771 770 770 770 771 771 770 769 768 768 767 766 765 764 764 765 765 764 764 764 764 763 762 762 761 760 761 761 760 760 760 760 760 760 759 759 759 759 758 758
786 787 788 788 788 788 789 789 790 790 791 791 791 790 790 790 790 789 789 788 787 787 786 785 784 782 781 780 779 777 776 775 774 773 772 771 771 770 769 769 768 768 768 768 768 768 768 768 767 767 768 768 768 767 766 766 765 763 763 762 762 762 761 761 761 760 760 759 759 758 758 758 758 758 758 758 758 758 758 757 756 756 756 756 755
786 787 788 788 788 789 789 790 790 790 790 790 790 790 790 790 790 789 789 788 787 787 786 785 783 782 781 780 779 777 776 775 774 773 772 771 770 769 768 768 767 766 766 766 765 766 766 766 765 765 764 765 766 765 764 764 763 761 761 761 761 760 759 759 758 757 757 756 756 755 756 755 755 755 755 755 755 755 755 755 754 753 754 753 753
786 787 787 788 789 789 789 790 789 790 790 790 790 790 790 790 790 789 788 787 787 786 785 785 783 783 782 780 779 777 776 776 774 773 772 771 770 769 768 767 767 766 765 764 764 764 765 765 764 763 763 763 763 762 761 761 760 760 759 759 759 759 759 758 757 756 755 754 753 753 753 752 751 752 752 751 752 752 752 752 752 751 752 751 751
785 787 788 788 789 789 789 789 789 789 790 790 790 790 791 790 789 788 787 787 787 786 786 785 784 783 782 781 780 778 777 777 775 774 773 771 770 769 768 768 767 766 766 765 764 763 763 763 762 761 761 760 761 760 759 758 757 757 757 756 756 756 757 756 754 754 755 753 751 751 750 748 747 748 748 748 748 749 748 749 749 749 749 749 749
785 787 788 789 789 789 789 789 789 790 790 791 791 791 790 789 788 788 788 788 787 786 786 785 784 784 783 782 781 780 779 778 777 775 774 773 772 770 769 768 767 767 766 765 764 763 762 761 760 759 759 758 758 757 756 755 754 753 753 753 753 752 752 752 750 750 751 751 750 749 747 746 745 745 745 745 745 745 745 745 746 746 746 746 746
784 787 788 789 789 789 789 789 790 790 791 791 790 790 789 789 789 789 789 788 788 787 786 785 784 784 783 782 782 781 780 780 778 777 775 774 773 772 771 770 769 768 767 765 765 763 762 761 759 758 758 757 756 756 754 753 752 750 750 750 749 748 747 747 747 747 747 747 747 745 744 744 743 742 742 742 742 742 741 742 742 743 743 743 742
784 786 788 789 789 789 789 789 789 790 790 790 789 789 790 790 790 790 790 789 788 787 787 785 785 784 783 783 783 782 782 781 780 778 777 776 775 773 772 772 770 769 768 767 765 764 763 761 760 758 758 757 756 755 754 752 751 749 748 747 746 745 745 744 744 744 744 743 742 740 739 740 740 739 740 741 740 739 738 739 739 739 739 738 737
785 786 788 788 789 789 789 788 789 789 789 789 790 790 791 791 791 791 790 790 789 788 787 786 785 785 785 784 783 783 783 782 781 779 778 777 776 775 773 772 771 770 769 767 766 765 763 762 761 759 758 757 756 755 754 752 750 748 746 745 744 743 743 742 741 741 740 739 738 737 736 737 737 736 736 738 738 738 737 736 736 736 736 735 735
785 787 788 788 789 789 788 788 788 789 789 790 791 792 792 792 792 792 791 791 790 789 788 787 786 786 786 785 784 784 784 783 782 781 779 778 776 775 774 773 771 770 769 768 767 765 764 762 761 760 758 757 756 755 753 752 750 748 746 744 743 742 740 739 739 738 737 736 735 734 733 733 734 733 733 734 734 736 736 735 734 734 734 733 733
785 787 787 788 788 788 788 788 789 790 791 791 792 792 793 793 793 793 792 791 791 790 790 789 788 788 787 786 785 785 785 784 783 782 780 779 777 775 774 773 771 770 769 768 767 765 764 763 761 759 758 757 755 754 752 750 749 747 745 743 741 739 737 737 736 735 734 733 732 732 730 730 729 729 729 729 729 731 733 732 731 732 731 731 730
785 786 787 788 788 788 789 789 790 792 792 792 793 793 793 793 793 793 793 792 792 792 791 790 789 789 788 787 787 786 786 785 784 782 781 780 778 776 775 773 772 770 769 767 766 765 764 763 761 759 758 756 754 752 751 749 747 745 743 741 739 737 735 734 733 732 731 730 729 728 727 726 726 725 725 725 725 726 727 725 726 730 730 728 727
785 786 787 788 788 789 790 791 792 792 793 793 793 793 794 794 794 793 793 793 793 792 791 791 790 789 789 788 788 787 786 785 784 783 782 780 779 777 776 774 772 770 769 767 766 765 763 762 760 759 757 755 752 750 749 747 745 743 741 740 738 735 733 732 731 729 728 727 726 725 723 723 722 722 721 721 721 721 721 719 722 725 725 724 724
785 786 787 788 789 790 792 793 793 793 793 793 794 794 794 794 794 794 794 793 793 793 792 791 790 790 790 789 788 788 787 786 785 784 782 781 780 778 777 775 773 771 770 768 766 764 762 760 759 757 755 753 751 749 747 745 743 741 739 738 736 733 732 730 728 727 726 724 723 722 721 720 719 718 717 717 716 716 716 716 716 719 719 718 720
785 786 787 787 790 792 793 793 793 794 794 794 794 794 794 794 794 794 794 794 793 792 792 792 791 790 790 789 789 788 787 786 785 784 783 782 781 779 778 776 774 772 770 768 766 764 761 759 757 755 754 752 750 747 745 743 741 739 737 735 734 732 730 728 726 725 724 722 720 719 718 717 716 715 714 714 713 713 713 712 712 713 714 713 714
785 786 787 788 791 792 793 794 794 794 794 794 794 794 794 794 794 794 794 794 793 793 792 792 791 791 790 789 789 788 787 786 785 784 783 782 781 780 778 776 775 773 770 768 766 764 762 759 757 755 753 751 749 747 744 742 740 738 736 734 731 730 728 726 724 723 722 720 719 718 716 715 714 714 713 712 711 711 710 709 708 709 709 708 709
786 787 789 790 792 792 793 794 794 795 795 794 794 794 793 794 794 794 794 794 793 793 792 791 791 791 790 789 788 787 787 786 785 784 783 782 781 780 779 777 775 773 771 768 766 763 761 759 757 755 753 751 749 747 745 742 740 738 736 733 730 728 726 725 724 723 721 720 719 717 716 714 713 712 711 710 710 709 708 707 706 706 705 704 704
787 789 791 792 792 792 793 794 795 795 795 794 794 794 794 794 794 794 794 794 793 793 792 791 791 790 789 789 788 787 786 785 785 784 783 782 781 780 778 776 774 772 770 768 766 763 761 759 757 755 753 751 749 747 745 743 741 739 736 734 731 728 727 725 724 723 721 720 719 717 715 714 712 711 710 709 708 707 706 705 704 703 702 701 701
787 790 791 792 792 792 793 794 795 794 794 794 794 794 794 794 794 794 794 793 793 792 791 791 790 790 789 788 787 786 786 785 784 784 783 782 781 779 777 776 773 772 769 767 765 763 761 760 758 756 754 752 750 748 745 744 742 740 738 735 732 730 728 726 724 723 722 721 719 718 716 714 712 711 709 708 706 704 703 702 701 700 699 698 697
787 789 790 791 792 793 794 794 794 794 794 794 794 794 794 794 794 794 793 793 792 792 791 791 790 789 789 788 787 786 785 785 784 783 782 781 780 778 776 774 772 771 769 766 765 763 761 760 758 756 755 753 751 749 747 745 743 741 739 737 735 733 731 728 726 724 723 721 720 718 716 714 712 710 709 707 705 703 701 700 698 697 696 695 694
787 788 789 791 792 793 793 794 794 794 794 794 794 794 794 794 794 793 793 793 792 792 791 790 790 789 788 788 787 786 785 784 783 782 781 780 779 777 775 773 771 769 767 766 764 762 761 760 758 757 755 753 752 750 748 745 743 741 740 738 737 735 733 731 728 726 724 722 721 718 716 714 712 710 708 706 704 702 700 699 697 695 694 693 691
787 788 789 791 792 792 793 793 793 793 794 794 794 794 794 794 793 793 793 792 792 792 791 790 790 789 788 787 786 785 784 783 783 782 781 780 779 777 774 773 771 769 767 765 763 762 761 759 757 756 754 752 751 749 747 746 745 743 741 740 738 736 734 731 729 727 725 723 721 718 716 714 712 710 708 706 704 702 700 698 696 694 692 691 689
787 788 789 790 791 792 792 793 793 793 793 794 794 794 794 794 793 793 793 793 792 792 791 790 790 789 788 787 787 786 785 784 783 782 782 780 779 776 774 773 771 769 767 765 764 762 761 759 757 756 754 752 751 749 747 746 745 744 742 741 739 737 735 732 730 729 727 724 722 719 717 714 713 711 709 707 704 702 700 698 696 693 692 690 688
787 788 789 790 791 791 792 792 792 793 793 793 793 793 793 794 793 793 793 793 792 792 791 790 790 789 788 788 788 787 787 785 784 783 782 780 778 776 775 773 771 769 767 766 764 763 761 760 759 758 756 755 753 751 750 748 746 744 743 741 740 738 736 734 732 730 728 726 723 721 719 716 714 712 710 708 705 702 700 698 696 694 691 689 687
786 787 788 789 790 791 791 792 792 792 793 793 793 793 793 794 793 794 794 793 792 792 791 791 790 790 789 789 789 788 787 786 784 783 781 779 778 776 775 773 771 769 768 766 764 763 762 761 760 759 757 756 755 754 752 750 748 746 743 742 740 738 737 735 733 731 729 727 724 722 720 718 716 714 712 709 706 703 700 698 696 694 692 690 688
785 786 787 788 789 790 791 791 791 792 792 792 792 792 793 793 793 794 794 793 793 792 791 791 791 790 790 789 788 787 786 785 784 782 781 779 778 776 774 773 771 769 768 766 765 764 763 762 761 759 758 757 755 754 753 751 749 747 745 742 741 739 737 736 734 732 730 728 726 724 721 720 718 715 713 710 707 704 701 699 697 695 693 690 688
784 785 786 787 788 789 790 790 791 791 791 791 792 792 793 793 794 794 794 793 793 792 792 792 791 791 790 789 788 787 786 784 783 782 780 779 778 776 774 773 771 769 768 766 765 764 763 762 761 760 758 757 756 755 753 752 750 748 746 744 742 740 738 736 734 732 731 729 727 725 723 721 719 716 713 711 709 706 703 701 698 696 694 691 689
783 784 785 786 787 789 789 790 790 790 791 791 792 792 793 793 793 793 793 793 792 792 792 792 791 791 790 789 788 786 785 783 782 781 780 779 778 776 774 773 771 770 768 767 766 765 764 762 761 760 758 757 756 754 753 751 750 748 746 744 742 740 738 736 734 732 731 729 727 726 724 722 720 717 715 712 709 707 704 702 700 697 695 693 690
782 784 785 786 787 788 788 789 790 790 790 791 792 793 793 793 793 793 793 792 792 792 792 792 791 791 790 789 788 786 785 784 783 781 780 779 778 776 774 772 771 770 769 768 767 765 764 763 761 760 758 757 755 754 752 751 749 747 746 744 742 740 738 736 734 733 731 729 727 726 725 723 721 719 716 714 711 708 706 703 701 699 696 694 691
782 783 784 785 786 787 788 789 789 790 791 792 792 793 793 793 793 793 792 792 792 792 792 792 791 791 790 789 788 787 786 785 783 782 781 780 778 776 774 773 772 771 770 769 767 766 765 763 761 760 758 757 755 754 752 750 749 747 745 743 742 740 738 736 734 732 730 728 727 726 724 722 720 719 716 714 712 709 707 704 701 699 697 694 692
782 783 784 785 786 787 787 788 789 790 791 791 792 792 792 792 792 792 792 792 792 792 792 791 791 790 789 789 788 787 786 785 783 782 781 780 779 777 776 775 773 772 771 769 768 766 765 763 761 760 758 756 755 753 751 750 748 746 744 743 741 739 737 735 734 732 730 728 726 725 723 721 720 718 716 713 711 709 706 704 701 698 696 694 691
781 782 783 785 785 786 787 788 788 789 790 791 791 792 792 792 792 792 792 792 792 792 791 791 790 790 789 789 788 787 785 784 783 781 781 780 779 777 776 775 774 772 771 770 768 766 765 763 761 759 758 756 754 752 751 749 747 745 743 742 740 738 736 734 732 731 729 727 726 724 722 720 718 717 715 713 711 708 705 703 701 698 695 692 690
781 782 783 784 785 785 786 787 788 789 789 790 791 791 791 791 791 791 792 792 791 791 791 790 790 790 789 788 788 786 785 784 783 782 782 781 779 778 777 776 774 773 772 770 768 766 764 763 761 759 757 755 753 751 750 748 746 744 742 740 738 736 735 733 731 729 728 726 724 723 721 719 717 716 714 712 710 707 704 702 700 697 694 691 689
781 782 783 784 784 785 786 786 787 788 789 789 790 790 790 791 791 791 791 791 791 790 790 790 790 789 789 788 787 786 785 785 784 784 783 781 780 779 778 776 775 774 772 770 768 766 764 762 760 758 756 754 752 750 748 746 744 742 741 739 737 735 733 731 730 728 726 724 723 721 719 718 716 714 712 710 708 706 703 700 698 696 693 691 688
780 782 782 783 784 784 785 786 787 788 788 789 789 789 790 790 791 791 790 790 790 790 790 790 790 789 789 788 787 786 785 785 784 783 782 781 780 779 778 776 775 773 772 770 768 766 764 762 760 758 756 753 751 749 747 745 743 741 739 738 736 734 732 730 728 726 724 723 721 719 718 716 714 712 710 708 706 704 701 699 696 694 692 689 687
780 781 782 783 784 784 785 786 787 787 788 788 788 789 790 790 790 790 789 789 790 790 789 789 789 789 788 787 786 785 785 784 783 782 781 780 779 778 777 776 774 772 771 769 767 765 763 761 759 757 755 752 750 748 746 744 742 740 738 736 734 732 730 728 726 725 723 721 719 718 715 713 711 709 707 705 703 701 699 697 694 692 690 687 685
779 780 781 783 784 784 785 785 786 787 787 787 788 789 789 789 789 789 789 789 789 789 789 789 789 788 787 786 785 785 784 783 782 781 780 779 778 777 775 774 773 771 770 768 766 764 762 760 758 756 754 752 749 747 745 743 741 738 736 735 732 730 728 727 725 723 722 720 718 715 713 711 709 706 704 703 701 699 697 694 692 690 688 685 683
779 780 781 782 783 784 785 785 786 786 787 787 788 789 789 788 788 788 788 789 789 789 788 788 788 787 786 785 784 784 783 782 781 780 778 777 776 775 774 773 771 769 768 766 764 762 760 758 756 754 752 750 748 746 744 742 739 737 735 733 730 729 727 725 724 722 720 718 716 713 711 708 706 704 701 700 698 696 694 692 690 687 685 683 681
779 780 781 782 783 783 784 784 785 786 786 787 788 788 788 788 788 788 788 788 788 788 788 787 787 786 785 784 784 783 782 781 780 779 778 777 775 774 773 771 770 768 766 764 762 760 758 756 754 752 750 748 746 744 742 740 738 736 733 731 729 727 726 724 723 721 719 717 714 711 709 706 703 701 698 697 695 693 691 689 687 685 683 681 678
778 779 780 781 782 782 783 784 785 785 786 786 787 787 787 787 787 787 788 787 787 787 787 786 786 785 784 784 783 782 781 780 779 778 777 776 774 773 772 770 768 766 764 762 761 759 757 755 753 750 748 746 744 742 740 738 736 734 732 730 728 726 724 723 721 719 717 715 712 709 706 703 700 698 696 694 692 690 688 686 684 682 680 678 676
778 778 779 780 781 781 782 783 784 785 785 786 786 787 787 787 787 787 787 787 787 787 786 785 785 784 783 783 782 781 780 780 778 777 776 774 773 771 770 768 766 765 763 761 759 757 755 753 751 749 747 745 742 740 738 736 734 733 730 728 727 725 723 721 719 717 715 712 710 707 704 701 697 694 692 690 689 687 685 682 680 678 676 675 673
777 778 779 779 780 781 781 782 783 784 784 785 785 786 786 786 786 786 786 786 786 786 785 784 784 783 783 782 781 780 780 779 777 776 774 773 771 770 768 766 764 763 761 758 756 754 752 751 749 747 745 743 741 738 736 735 733 731 729 727 725 723 721 719 717 714 712 709 706 704 701 698 694 691 689 687 685 684 681 679 677 675 673 671 669
777 777 778 779 779 780 781 781 782 783 784 784 785 785 785 786 786 786 786 786 786 785 784 784 783 783 782 781 780 780 779 777 776 774 773 771 769 768 766 764 763 761 758 756 754 752 751 749 747 745 743 741 739 737 735 733 731 729 727 725 723 721 719 716 714 712 709 706 703 700 697 694 691 689 686 684 682 680 678 676 673 671 670 668 666
776 776 777 778 778 779 780 781 782 783 783 783 784 784 784 785 785 785 786 786 785 785 784 784 783 782 782 780 780 779 777 776 774 773 771 770 768 766 764 763 761 759 757 754 752 751 749 747 744 742 741 739 737 735 733 732 730 728 725 723 721 718 716 713 711 708 706 703 699 696 694 691 688 685 683 681 679 677 674 672 670 668 667 665 662
775 776 776 777 777 778 779 780 781 782 782 783 783 783 784 784 784 785 785 785 785 784 784 783 783 782 781 780 779 778 776 775 773 772 770 768 767 765 763 761 759 757 755 753 751 749 747 744 742 740 739 737 735 734 732 730 728 725 723 721 718 715 713 710 707 705 702 699 696 693 690 687 685 682 680 678 676 674 671 669 667 665 663 661 659